• In United Kingdom
  • List of Countries
  • For 7 days
  • Water Temperature
  • Satellite Maps
  • Weather Map
  • Weather Widgets
  • user-avatar
    Login

    Hourly Weather Madingou

    Today, 24 October, Wednesday

    Time Temperature Precipitation Wind Pressure Humidity
    00:00 +27°C° 4.2 mm 2 mps 745 mmHg 90%
    01:00 +27°C° 4.2 mm 2 mps 745 mmHg 91%
    02:00 +27°C° 3.9 mm 2 mps 745 mmHg 92%
    03:00 +27°C° 3.9 mm 2 mps 745 mmHg 92%
    04:00 +27°C° 3.9 mm 1 mps 744 mmHg 93%
    05:00 +26°C° 2.7 mm 1 mps 745 mmHg 93%
    06:00 +26°C° 2.7 mm 1 mps 745 mmHg 93%
    07:00 +26°C° 2.7 mm 1 mps 745 mmHg 93%
    08:00 +27°C° 1.4 mm 1 mps 746 mmHg 92%
    09:00 +27°C° 1.4 mm 1 mps 746 mmHg 90%
    10:00 +28°C° 1.4 mm 1 mps 746 mmHg 89%
    11:00 +28°C° 1.1 mm 1 mps 746 mmHg 88%
    12:00 +28°C° 1.1 mm 1 mps 745 mmHg 88%
    13:00 +28°C° 1.1 mm 1 mps 744 mmHg 88%
    14:00 +28°C° 0.2 mm 1 mps 744 mmHg 87%
    15:00 +28°C° 0.2 mm 2 mps 743 mmHg 87%
    16:00 +28°C° 0.2 mm 2 mps 743 mmHg 87%
    17:00 +27°C° 0 mm 1 mps 743 mmHg 89%
    18:00 +27°C° 0 mm 1 mps 743 mmHg 91%
    19:00 +26°C° 0 mm 1 mps 744 mmHg 94%
    20:00 +26°C° 0 mm 1 mps 744 mmHg 94%
    21:00 +26°C° 0 mm 1 mps 745 mmHg 95%
    22:00 +26°C° 0 mm 1 mps 745 mmHg 96%
    23:00 +25°C° 0 mm 1 mps 745 mmHg 96%

    Tomorrow, 25 October, Thursday

    Time Temperature Precipitation Wind Pressure Humidity
    00:00 +25°C° 0 mm 1 mps 745 mmHg 96%
    01:00 +25°C° 0 mm 1 mps 744 mmHg 97%
    02:00 +25°C° 0 mm 1 mps 744 mmHg 97%
    03:00 +25°C° 0 mm 1 mps 744 mmHg 97%
    04:00 +25°C° 0 mm 1 mps 744 mmHg 97%
    05:00 +23°C° 0 mm 0 mps 744 mmHg 95%
    06:00 +24°C° 0 mm 0 mps 745 mmHg 93%
    07:00 +24°C° 0 mm 0 mps 745 mmHg 91%
    08:00 +26°C° 0.1 mm 0 mps 745 mmHg 84%
    09:00 +27°C° 0.1 mm 0 mps 746 mmHg 78%
    10:00 +29°C° 0.1 mm 0 mps 746 mmHg 71%
    11:00 +30°C° 0.9 mm 0 mps 745 mmHg 68%
    12:00 +31°C° 0.9 mm 0 mps 744 mmHg 64%
    13:00 +32°C° 0.9 mm 0 mps 744 mmHg 60%
    14:00 +33°C° 0.3 mm 1 mps 743 mmHg 59%
    15:00 +33°C° 0.3 mm 1 mps 742 mmHg 57%
    16:00 +33°C° 0.3 mm 1 mps 742 mmHg 56%
    17:00 +32°C° 0.1 mm 1 mps 742 mmHg 62%
    18:00 +31°C° 0.1 mm 1 mps 743 mmHg 69%
    19:00 +29°C° 0.1 mm 1 mps 743 mmHg 75%
    20:00 +29°C° 0 mm 1 mps 744 mmHg 77%
    21:00 +28°C° 0 mm 1 mps 744 mmHg 79%
    22:00 +28°C° 0 mm 1 mps 745 mmHg 81%
    23:00 +28°C° 0 mm 1 mps 745 mmHg 82%

    Day after tomorrow, 26 October, Friday

    Time Temperature Precipitation Wind Pressure Humidity
    00:00 +27°C° 0 mm 1 mps 744 mmHg 84%
    01:00 +27°C° 0 mm 1 mps 744 mmHg 85%
    02:00 +27°C° 0.3 mm 1 mps 744 mmHg 88%
    03:00 +27°C° 0.3 mm 1 mps 744 mmHg 90%
    04:00 +26°C° 0.3 mm 1 mps 743 mmHg 92%
    05:00 +26°C° 0.6 mm 1 mps 744 mmHg 91%
    06:00 +27°C° 0.6 mm 1 mps 745 mmHg 90%
    07:00 +27°C° 0.6 mm 1 mps 745 mmHg 89%
    08:00 +28°C° 1.4 mm 1 mps 746 mmHg 83%
    09:00 +30°C° 1.4 mm 1 mps 746 mmHg 77%
    10:00 +32°C° 1.4 mm 1 mps 746 mmHg 71%
    11:00 +32°C° 1.7 mm 1 mps 745 mmHg 68%
    12:00 +33°C° 1.7 mm 1 mps 744 mmHg 66%
    13:00 +33°C° 1.7 mm 1 mps 744 mmHg 63%
    14:00 +33°C° 1.3 mm 1 mps 743 mmHg 64%
    15:00 +33°C° 1.3 mm 1 mps 743 mmHg 65%
    16:00 +30°C° 1.3 mm 0 mps 742 mmHg 66%
    17:00 +31°C° 0.1 mm 1 mps 743 mmHg 71%
    18:00 +30°C° 0.1 mm 1 mps 744 mmHg 76%
    19:00 +29°C° 0.1 mm 1 mps 744 mmHg 81%
    20:00 +28°C° 0.3 mm 1 mps 745 mmHg 83%
    21:00 +28°C° 0.3 mm 1 mps 745 mmHg 85%
    22:00 +28°C° 0.3 mm 1 mps 746 mmHg 88%
    23:00 +27°C° 0 mm 1 mps 746 mmHg 89%

    27 October, Saturday

    Time Temperature Precipitation Wind Pressure Humidity
    00:00 +27°C° 0 mm 1 mps 745 mmHg 90%
    01:00 +27°C° 0 mm 1 mps 745 mmHg 91%
    02:00 +26°C° 0 mm 1 mps 745 mmHg 92%
    03:00 +26°C° 0 mm 1 mps 745 mmHg 93%
    04:00 +26°C° 0 mm 1 mps 744 mmHg 94%
    05:00 +26°C° 0.2 mm 1 mps 745 mmHg 92%
    06:00 +27°C° 0.2 mm 1 mps 746 mmHg 91%
    07:00 +27°C° 0.2 mm 1 mps 746 mmHg 90%
    08:00 +28°C° 0 mm 1 mps 746 mmHg 85%
    09:00 +29°C° 0 mm 1 mps 746 mmHg 80%
    10:00 +30°C° 0 mm 1 mps 746 mmHg 75%
    11:00 +31°C° 2 mm 1 mps 745 mmHg 73%
    12:00 +32°C° 2 mm 1 mps 745 mmHg 71%
    13:00 +32°C° 2 mm 1 mps 744 mmHg 69%
    14:00 +32°C° 1.1 mm 1 mps 743 mmHg 70%
    15:00 +32°C° 1.1 mm 1 mps 743 mmHg 71%
    16:00 +31°C° 1.1 mm 1 mps 742 mmHg 73%
    17:00 +30°C° 0.2 mm 1 mps 743 mmHg 77%
    18:00 +29°C° 0.2 mm 1 mps 744 mmHg 81%
    19:00 +28°C° 0.2 mm 1 mps 744 mmHg 86%
    20:00 +28°C° 1 mm 1 mps 745 mmHg 87%
    21:00 +28°C° 1 mm 1 mps 745 mmHg 89%
    22:00 +27°C° 1 mm 1 mps 745 mmHg 91%
    23:00 +27°C° 0 mm 1 mps 745 mmHg 91%

    28 October, Sunday

    Time Temperature Precipitation Wind Pressure Humidity
    00:00 +27°C° 0 mm 1 mps 745 mmHg 92%
    01:00 +27°C° 0 mm 1 mps 744 mmHg 93%
    02:00 +27°C° 0 mm 1 mps 744 mmHg 93%
    03:00 +26°C° 0 mm 1 mps 744 mmHg 94%
    04:00 +26°C° 0 mm 1 mps 744 mmHg 94%
    05:00 +27°C° 0.1 mm 1 mps 744 mmHg 93%
    06:00 +25°C° 0.1 mm 0 mps 745 mmHg 92%
    07:00 +25°C° 0.1 mm 0 mps 745 mmHg 90%
    08:00 +27°C° 0.3 mm 0 mps 745 mmHg 84%
    09:00 +28°C° 0.3 mm 0 mps 745 mmHg 77%
    10:00 +30°C° 0.3 mm 0 mps 746 mmHg 71%
    11:00 +30°C° 0.8 mm 0 mps 745 mmHg 67%
    12:00 +33°C° 0.8 mm 1 mps 744 mmHg 64%
    13:00 +34°C° 0.8 mm 1 mps 743 mmHg 60%
    14:00 +34°C° 0 mm 1 mps 742 mmHg 60%
    15:00 +34°C° 0 mm 1 mps 742 mmHg 60%
    16:00 +34°C° 0 mm 1 mps 741 mmHg 59%
    17:00 +32°C° 0 mm 1 mps 742 mmHg 64%
    18:00 +31°C° 0 mm 1 mps 743 mmHg 68%
    19:00 +30°C° 0 mm 1 mps 743 mmHg 73%
    20:00 +29°C° 1 mm 1 mps 744 mmHg 78%
    21:00 +28°C° 1 mm 1 mps 744 mmHg 83%
    22:00 +27°C° 1 mm 1 mps 744 mmHg 88%
    23:00 +27°C° 0.7 mm 1 mps 744 mmHg 90%

    29 October, Monday

    Time Temperature Precipitation Wind Pressure Humidity
    00:00 +27°C° 0.7 mm 1 mps 744 mmHg 91%
    01:00 +26°C° 0.7 mm 1 mps 743 mmHg 93%
    02:00 +26°C° 0 mm 1 mps 743 mmHg 93%
    03:00 +26°C° 0 mm 1 mps 744 mmHg 93%
    04:00 +26°C° 0 mm 1 mps 744 mmHg 94%
    05:00 +26°C° 0.2 mm 1 mps 744 mmHg 92%
    06:00 +26°C° 0.2 mm 1 mps 745 mmHg 91%
    07:00 +27°C° 0.2 mm 1 mps 746 mmHg 90%
    08:00 +27°C° 0.3 mm 1 mps 746 mmHg 86%
    09:00 +28°C° 0.3 mm 1 mps 746 mmHg 83%
    10:00 +29°C° 0.3 mm 1 mps 746 mmHg 79%
    11:00 +30°C° 0.1 mm 1 mps 745 mmHg 75%
    12:00 +31°C° 0.1 mm 1 mps 744 mmHg 70%
    13:00 +30°C° 0.1 mm 0 mps 743 mmHg 66%
    14:00 +32°C° 0.1 mm 1 mps 743 mmHg 68%
    15:00 +31°C° 0.1 mm 1 mps 743 mmHg 69%
    16:00 +31°C° 0.1 mm 2 mps 742 mmHg 71%
    17:00 +30°C° 0 mm 1 mps 743 mmHg 75%
    18:00 +29°C° 0 mm 1 mps 743 mmHg 80%
    19:00 +28°C° 0 mm 1 mps 744 mmHg 84%
    20:00 +28°C° 0.6 mm 1 mps 744 mmHg 86%
    21:00 +27°C° 0.6 mm 1 mps 745 mmHg 88%
    22:00 +27°C° 0.6 mm 1 mps 745 mmHg 90%
    23:00 +27°C° 0.4 mm 1 mps 744 mmHg 92%

    30 October, Tuesday

    Time Temperature Precipitation Wind Pressure Humidity
    00:00 +27°C° 0.4 mm 1 mps 744 mmHg 93%
    01:00 +26°C° 0.4 mm 1 mps 744 mmHg 94%
    02:00 +26°C° 0.2 mm 1 mps 743 mmHg 94%
    03:00 +26°C° 0.2 mm 1 mps 743 mmHg 94%
    04:00 +26°C° 0.2 mm 1 mps 743 mmHg 95%
    05:00 +26°C° 0.2 mm 1 mps 744 mmHg 94%
    06:00 +24°C° 0.2 mm 0 mps 744 mmHg 93%
    07:00 +25°C° 0.2 mm 0 mps 745 mmHg 93%
    08:00 +26°C° 0.1 mm 0 mps 745 mmHg 88%
    09:00 +29°C° 0.1 mm 1 mps 745 mmHg 83%
    10:00 +30°C° 0.1 mm 1 mps 745 mmHg 78%
    11:00 +31°C° 0 mm 1 mps 744 mmHg 72%
    12:00 +32°C° 0 mm 1 mps 743 mmHg 66%
    13:00 +33°C° 0 mm 1 mps 742 mmHg 60%
    14:00 +33°C° 0 mm 1 mps 742 mmHg 61%
    15:00 +33°C° 0 mm 1 mps 742 mmHg 62%
    16:00 +32°C° 0 mm 1 mps 741 mmHg 64%
    17:00 +31°C° 0 mm 1 mps 742 mmHg 69%
    18:00 +30°C° 0 mm 1 mps 743 mmHg 74%
    19:00 +29°C° 0 mm 1 mps 743 mmHg 79%
    20:00 +28°C° 0.3 mm 1 mps 743 mmHg 81%
    21:00 +28°C° 0.3 mm 1 mps 744 mmHg 84%
    22:00 +27°C° 0.3 mm 1 mps 744 mmHg 86%
    23:00 +27°C° 0 mm 1 mps 744 mmHg 88%
    Show more